Location: Bremen
(53.0793°N, 8.8017°E)
Time: 19:03:25
(UTC+02:00)

BlueWalker 3 - Pass Details

Date: 03 March 2024
Orbit: 485 x 495 km, 53.2° (Epoch: 20 April)

Event Time Altitude Azimuth Distance (km) Brightness Sun altitude
Rises 19:37:05 0° 286° (WNW) 2,565 7.4 -14.2°
Reaches altitude 10° 19:39:28 10° 274° (W) 1,678 6.0 -14.5°
Maximum altitude 19:42:43 27° 215° (SW) 954 3.6 -15.0°
Enters shadow 19:45:31 12° 159° (SSE) 1,524 4.1 -15.4°
